STARLINK-34217, 64488

Orbit data source: Space-Track

STARLINK-34217, 64488 is a payload satellite owned by SpaceX/Seattle (US) in LEO that was launched on Mon, 23 Jun 2025 UTC via an FALCON 9 launch vehicle from the Air Force Eastern Test Range (AFETR). Payload-class satellites include a variety of spacecraft equipped with specific instruments for various scientific and technological missions. These include communications satellites like Starlink; space stations such as the ISS; scientific satellites like the Hubble; Earth observation satellites from companies like Planet Labs, Umbra, and HawkEye 360; GPS; miniature CubeSats for education and research; and military/defense satellites.

Loading next visibility...
Identifier
64488, 2025-133S
Orbit
LEO
Country
Flag of USUS
Related business
Manufacturer
SpaceX/Seattle
Mission
Operational Commercial Communications
Bus & Motor
STARLINK V2MO, Unknown motor
Mass
575 kg wet, ~530 kg dry
Launch date (UTC)
2025-06-23 (1 year ago)
Launch vehicle
FALCON 9
Launch site
Air Force Eastern Test Range (AFETR)
Object type
Payload
Rocket body
Debris
Shape & HBR
Box + 2 Pan, 17.7 m
Radar Cross Section
36.964 m², Large (>1 m²)

Expand to show TLE details & history
Last TLE update: 1 day ago

TLE from 1 day ago
0 STARLINK-34217
1 64488U 25133S   26170.82427496  .00012213  00000-0  42374-3 0  9994
2 64488  53.1601   2.5292 0001190  57.7542 302.3574 15.30203965 56716
Epoch: 2026-06-19T19:46Z
TLE epoch observation values (Epoch: 2026-06-19T19:46:57.356Z)
Latitude
-0.00002°
Longitude
157.74249°
Altitude
475.667 km
Speed
7.629 km/s
True Right ascension
00h 10m 07s
True Declination
0° 00' 00"
Sunlit
Object was in daylight at epoch
Visualization orbit readout
Latitude
Unknown
Longitude
Unknown
Altitude
Unknown
Speed
Unknown
Apparent Right ascension
Unknown
Apparent Declination
Unknown
Sunlit
N/A
Visualization observer readout
Local Sidereal Time
10:18:00
Azimuth
Unknown
Elevation
Unknown
Doppler factor
Unknown
Orbital elements
Apogee altitude
476.275 km
Perigee altitude
474.644 km
Semi-major axis
6,853.597 km
Eccentricity
0.00012
Inclination
53.1601°
RAAN
2.5292°
Arg. of periapsis
57.7542°
True anomaly
302.34588°
Mean anomaly
302.3574°
Eccentric anomaly
302.35164°
Mean motion
3.8253 °/min
Orbital period
94.11 mins
BSTAR
0.00042374
Loading maneuver chart data...
Computing Atmospheric mass density...
Loading historical data...
Loading historical data...
Loading historical data...
Loading historical data...
Loading historical data...
Loading historical data...
Loading historical data...

Documentation

Showing up to 5 results
|